STARLINK-5554 (56338 NORAD) Tracking and Keplerian Element Data

This shows tracking and keplerian element data for the satellite.

Feedback or suggestion? Click here.




ElementValue
Catalog56338
NameSTARLINK-5554
Epoch Orbit183
Epoch Day127.16667824
Epoch Year2023
RAAN126.654
Inclination97.6632
Eccentricity0.0001576
Argument of Perigee97.0712
Mean Anonmoly91.5963
Mean Motion15.67809203
Decay Rate-0.00858207
L11 56338U 23058X 23127.16667824 -.00858207 00000+0 -86786-2 0 9996
L22 56338 97.6632 126.6540 0001576 97.0712 91.5963 15.67809203 1835



Live tracking and technical data element details for STARLINK-5554 (NORAD 56338). STARLINK-5554 can be tracked NOW for your location showing map with azimuth and elevation plus other details from your city location.







IsCatalogInMostPopularTable: catalog: 56338, numindb: 2
Update: records affected: 1



GetName: 56338 STARLINK-5554

Hit Count: updated at: Sat, 03 Jun 2023 18:46:16 GMT